Date String (YYYY-MM-DD hh:mm:ss) UTC,Instrument flags,absolute air pressure of the measurement (hPa),sample flow rate (lpm),inlet stack bypass flow (lpm),air temperature of the measurement (°C),ambient temperature measured by the external sensor (°C),aerosol sample conditioner tube jacket temperature (°C),OPC LED temperature (°C),internal box temperature (°C),relative humidity of the measurement (%),span deviation,mass concentration of particles derived from Lorenz-Mie calculation of OPC scattering (μg/m³),mass concentration of particles derived from Lorenz-Mie calculation of OPC scattering (μg/m³),mass concentration of particles derived from Lorenz-Mie calculation of OPC scattering (μg/m³)
DateTimeUTC,F1_M11,P_M11,Q1_M11,Q2_M11,T1_M11,T2_M11,T3_M11,T4_M11,T5_M11,U1_M11,ZSPAN_M11,X2_M11,X0_M11,X1_M11
2024-05-22 02:00:00,SystemResetWarning,0827.7,5.00,000.00,027.1,026.3,000.0,035.5,028.9,010.9,0000.0,0001.37,0003.17,0001.11
2024-05-22 02:01:00,SystemResetWarning,0827.7,5.00,000.00,027.1,026.3,000.0,035.5,028.9,010.9,0000.0,0001.39,0003.16,0001.12
2024-05-22 02:02:00,SystemResetWarning,0827.7,5.00,000.00,027.1,026.4,000.0,035.5,028.9,010.7,0000.0,0001.38,0003.07,0001.12
2024-05-22 02:03:00,SystemResetWarning,0827.8,4.99,000.00,027.1,026.4,000.0,035.5,028.9,010.8,0000.0,0001.37,0003.03,0001.11
2024-05-22 02:04:00,SystemResetWarning,0827.8,5.00,000.00,027.1,026.4,000.0,035.5,028.9,010.9,0000.0,0001.38,0006.15,0001.10
2024-05-22 02:05:00,SystemResetWarning,0827.8,5.00,000.00,027.1,026.4,000.0,035.5,028.9,011.0,0000.0,0001.41,0008.01,0001.11
2024-05-22 02:06:00,SystemResetWarning,0827.8,5.00,000.00,027.1,026.4,000.0,035.5,028.9,010.9,0000.0,0001.43,0007.87,0001.11
2024-05-22 02:07:00,SystemResetWarning,0827.8,5.00,000.00,027.2,026.4,000.0,035.5,029.0,010.8,0000.0,0001.46,0007.42,0001.13
2024-05-22 02:08:00,SystemResetWarning,0827.7,5.01,000.00,027.2,026.4,000.0,035.5,029.0,010.9,0000.0,0001.49,0007.46,0001.13
2024-05-22 02:09:00,SystemResetWarning,0827.7,5.00,000.00,027.2,026.5,000.0,035.5,029.0,010.8,0000.0,0001.50,0007.49,0001.13
2024-05-22 02:10:00,SystemResetWarning,0827.8,5.00,000.00,027.2,026.5,000.0,035.5,029.0,010.1,0000.0,0001.49,0007.49,0001.13
2024-05-22 02:11:00,SystemResetWarning,0827.7,5.00,000.00,027.2,026.5,000.0,035.5,029.0,010.2,0000.0,0001.48,0007.49,0001.12
2024-05-22 02:12:00,SystemResetWarning,0827.8,5.00,000.00,027.2,026.5,000.0,035.5,029.0,010.7,0000.0,0001.49,0007.53,0001.12
2024-05-22 02:13:00,SystemResetWarning,0827.8,5.01,000.00,027.2,026.5,000.0,035.5,029.0,010.9,0000.0,0001.48,0007.55,0001.11
2024-05-22 02:14:00,SystemResetWarning,0827.8,5.00,000.00,027.2,026.5,000.0,035.5,029.0,011.1,0000.0,0001.48,0007.56,0001.11
2024-05-22 02:15:00,SystemResetWarning,0827.9,5.00,000.00,027.2,026.5,000.0,035.5,029.0,011.2,0000.0,0001.46,0005.29,0001.11
2024-05-22 02:16:00,SystemResetWarning,0828.0,5.00,000.00,027.2,026.5,000.0,035.5,029.0,011.1,0000.0,0001.47,0002.24,0001.12
2024-05-22 02:17:00,SystemResetWarning,0828.1,5.00,000.00,027.2,026.5,000.0,035.5,029.0,011.4,0000.0,0001.47,0002.26,0001.12
2024-05-22 02:18:00,SystemResetWarning,0828.1,5.00,000.00,027.2,026.5,000.0,035.5,029.0,011.8,0000.0,0001.44,0002.43,0001.10
2024-05-22 02:19:00,SystemResetWarning,0828.1,5.00,000.00,027.2,026.5,000.0,035.5,029.0,011.8,0000.0,0001.43,0002.49,0001.10
2024-05-22 02:20:00,SystemResetWarning,0828.0,5.01,000.00,027.2,026.5,000.0,035.5,029.0,011.4,0000.0,0001.42,0002.65,0001.11
2024-05-22 02:21:00,SystemResetWarning,0828.0,5.00,000.00,027.2,026.5,000.0,035.5,029.0,011.3,0000.0,0001.42,0003.01,0001.11
2024-05-22 02:22:00,SystemResetWarning,0828.1,5.00,000.00,027.2,026.5,000.0,035.5,029.0,011.4,0000.0,0001.41,0002.96,0001.11
2024-05-22 02:23:00,SystemResetWarning,0828.0,5.00,000.00,027.2,026.5,000.0,035.5,029.0,011.3,0000.0,0001.40,0002.89,0001.11
2024-05-22 02:24:00,SystemResetWarning,0828.1,4.99,000.00,027.2,026.5,000.0,035.5,029.0,011.1,0000.0,0001.37,0002.82,0001.11
2024-05-22 02:25:00,SystemResetWarning,0828.1,5.00,000.00,027.2,026.5,000.0,035.5,029.0,010.9,0000.0,0001.37,0002.83,0001.11
2024-05-22 02:26:00,SystemResetWarning,0828.0,5.00,000.00,027.2,026.5,000.0,035.5,029.0,011.0,0000.0,0001.38,0002.84,0001.12
2024-05-22 02:27:00,SystemResetWarning,0828.0,4.99,000.00,027.2,026.5,000.0,035.5,029.0,011.3,0000.0,0001.36,0002.73,0001.11
2024-05-22 02:28:00,SystemResetWarning,0828.1,5.00,000.00,027.2,026.5,000.0,035.5,029.0,011.4,0000.0,0001.32,0002.64,0001.09
2024-05-22 02:29:00,SystemResetWarning,0828.1,5.00,000.00,027.2,026.5,000.0,035.5,029.1,011.0,0000.0,0001.31,0002.44,0001.09
2024-05-22 02:30:00,SystemResetWarning,0828.1,5.01,000.00,027.3,026.5,000.0,035.5,029.1,010.6,0000.0,0001.30,0002.32,0001.09
2024-05-22 02:31:00,SystemResetWarning,0828.0,5.00,000.00,027.3,026.5,000.0,035.5,029.1,010.7,0000.0,0001.31,0002.19,0001.08
2024-05-22 02:32:00,SystemResetWarning,0828.1,4.99,000.00,027.3,026.5,000.0,035.6,029.1,010.9,0000.0,0001.28,0002.28,0001.08
2024-05-22 02:33:00,SystemResetWarning,0828.1,4.99,000.00,027.3,026.5,000.0,035.6,029.1,011.0,0000.0,0001.26,0002.28,0001.07
2024-05-22 02:34:00,SystemResetWarning,0828.2,5.01,000.00,027.3,026.5,000.0,035.6,029.1,011.1,0000.0,0001.32,0002.37,0001.08
2024-05-22 02:35:00,SystemResetWarning,0828.3,5.00,000.00,027.3,026.5,000.0,035.6,029.1,011.4,0000.0,0001.33,0002.41,0001.08
2024-05-22 02:36:00,SystemResetWarning,0828.3,5.00,000.00,027.3,026.5,000.0,035.6,029.1,011.6,0000.0,0001.33,0002.49,0001.08
2024-05-22 02:37:00,SystemResetWarning,0828.3,5.01,000.00,027.3,026.6,000.0,035.6,029.1,011.8,0000.0,0001.37,0002.58,0001.08
2024-05-22 02:38:00,SystemResetWarning,0828.4,5.01,000.00,027.3,026.6,000.0,035.6,029.1,012.1,0000.0,0001.38,0002.68,0001.08
2024-05-22 02:39:00,SystemResetWarning,0828.4,5.00,000.00,027.3,026.6,000.0,035.6,029.1,012.1,0000.0,0001.38,0002.67,0001.09
2024-05-22 02:40:00,SystemResetWarning,0828.4,4.99,000.00,027.3,026.5,000.0,035.6,029.1,012.1,0000.0,0001.40,0002.74,0001.09
2024-05-22 02:41:00,SystemResetWarning,0828.4,5.00,000.00,027.3,026.5,000.0,035.6,029.1,012.3,0000.0,0001.42,0002.82,0001.11
2024-05-22 02:42:00,SystemResetWarning,0828.5,5.00,000.00,027.3,026.5,000.0,035.6,029.1,012.4,0000.0,0001.43,0002.76,0001.12
2024-05-22 02:43:00,SystemResetWarning,0828.5,5.00,000.00,027.3,026.5,000.0,035.6,029.1,012.4,0000.0,0001.46,0002.34,0001.14
2024-05-22 02:44:00,SystemResetWarning,0828.4,5.00,000.00,027.3,026.5,000.0,035.6,029.1,012.5,0000.0,0001.49,0002.38,0001.15
2024-05-22 02:45:00,SystemResetWarning,0828.4,5.01,000.00,027.3,026.5,000.0,035.6,029.1,012.6,0000.0,0001.47,0002.43,0001.16
2024-05-22 02:46:00,SystemResetWarning,0828.4,4.99,000.00,027.3,026.5,000.0,035.6,029.0,012.6,0000.0,0001.46,0002.42,0001.17
2024-05-22 02:47:00,SystemResetWarning,0828.5,4.99,000.00,027.3,026.5,000.0,035.6,029.0,012.6,0000.0,0001.50,0002.43,0001.19
2024-05-22 02:48:00,SystemResetWarning,0828.4,5.00,000.00,027.3,026.5,000.0,035.6,029.0,012.6,0000.0,0001.51,0002.51,0001.20
2024-05-22 02:49:00,SystemResetWarning,0828.4,5.01,000.00,027.2,026.5,000.0,035.6,029.0,012.5,0000.0,0001.50,0002.46,0001.22
2024-05-22 02:50:00,SystemResetWarning,0828.6,5.01,000.00,027.2,026.5,000.0,035.6,029.0,011.8,0000.0,0001.52,0002.50,0001.23
2024-05-22 02:51:00,SystemResetWarning,0828.6,4.99,000.00,027.2,026.5,000.0,035.6,029.0,011.8,0000.0,0001.56,0002.55,0001.23
2024-05-22 02:52:00,SystemResetWarning,0828.6,4.99,000.00,027.2,026.5,000.0,035.6,029.0,012.0,0000.0,0001.57,0002.54,0001.22
2024-05-22 02:53:00,SystemResetWarning,0828.6,4.99,000.00,027.2,026.5,000.0,035.6,029.0,011.8,0000.0,0001.57,0002.57,0001.22
2024-05-22 02:54:00,SystemResetWarning,0828.6,5.00,000.00,027.2,026.4,000.0,035.6,029.0,011.7,0000.0,0001.56,0002.70,0001.19
2024-05-22 02:55:00,SystemResetWarning,0828.5,5.01,000.00,027.2,026.4,000.0,035.6,029.0,011.9,0000.0,0001.55,0002.93,0001.17
2024-05-22 02:56:00,SystemResetWarning,0828.4,5.00,000.00,027.2,026.4,000.0,035.6,029.0,012.1,0000.0,0001.52,0002.92,0001.14
2024-05-22 02:57:00,SystemResetWarning,0828.4,4.99,000.00,027.2,026.4,000.0,035.5,029.0,012.0,0000.0,0001.47,0002.87,0001.10
2024-05-22 02:58:00,SystemResetWarning,0828.4,5.01,000.00,027.2,026.4,000.0,035.5,029.0,011.3,0000.0,0001.43,0002.83,0001.07
2024-05-22 02:59:00,SystemResetWarning,0828.5,5.00,000.00,027.2,026.4,000.0,035.5,028.9,010.5,0000.0,0001.40,0002.71,0001.06
